Miscellaneous Local Product
Issued by NWS North Platte, NE

Home | Current Version | Previous Version | Text Only | Print | Product List | Glossary Off
Versions: 1 2 3 4 5 6 7 8 9 10 11 12 13 14 15 16 17 18 19 20 21 22 23 24 25 26 27 28 29 30 31 32 33 34 35 36 37 38 39 40 41 42 43 44 45 46 47 48 49 50

497
AXUS43 KLBF 231210
MISLBF


WESTERN AND NORTH CENTRAL NEBRASKA HOURLY WEATHER ROUNDUP
NATIONAL WEATHER SERVICE NORTH PLATTE NE
600 AM CST TUE JAN 23 2018

NOTE: "FAIR" INDICATES FEW OR NO CLOUDS BELOW 12,000 FEET WITH NO
SIGNIFICANT WEATHER AND/OR OBSTRUCTIONS TO VISIBILITY.

NOTE: STATIONS NOT REPORTING VARIABLES SUCH AS SKY/WEATHER OR
PRESSURE ARE PROVIDED BY RAWS AND APRS NETWORKS AND ARE NOT UNDER
NATIONAL WEATHER SERVICE QUALITY CONTROL.

...OBSERVATIONS IN AND NEAR THE EASTERN PANHANDLE OF NEBRASKA...

CITY           SKY/WX    TMP DP  RH WIND       PRES   REMARKS
PINE RIDGE     CLOUDY    24  20  84 SW3       30.11R
GORDON         CLOUDY    26  19  76 W7        30.09R WCI  18
CHADRON        MOCLDY    26  19  74 SW6       30.13S WCI  19
ALLIANCE       MOCLDY    19  17  92 W8        30.11R WCI   9
SIDNEY         MOCLDY    26  19  74 NW13      30.12S WCI  15
CRESCENT LAKE    N/A     26  19  74 NW9         N/A  WCI  17
$$

...OBSERVATIONS IN NORTHERN NEBRASKA AND FAR SOUTHERN SOUTH DAKOTA...

CITY           SKY/WX    TMP DP  RH WIND       PRES   REMARKS
WINNER         FAIR      15  11  83 W10       30.07R WCI   2
VALENTINE      MOCLDY    15  10  80 W6        30.08R WCI   6
AINSWORTH      CLEAR     17  13  84 W10       30.07R WCI   5
O`NEILL        CLOUDY    19  19 100 W7        30.07S FOG     WCI  10
THEDFORD       PTCLDY    16  11  82 W8        30.09R WCI   5
BROKEN BOW     CLEAR     21  13  71 NW14      30.07S WCI   8
ORD            CLEAR     10   7  87 N3        30.08R
ALBION         CLOUDY    21  19  93 NW18      30.07R FOG     WCI   6
VALENTINE NWR    N/A     19  13  79 W8          N/A  WCI   9
HALSEY           N/A     19  12  73 NW9         N/A  WCI   8
BUTTE            N/A     19  17  93 W3          N/A
CHAMBERS         N/A     15  13  91 W3          N/A
EWING            N/A     20  19  94 NW9         N/A  WCI   9
$$

...OBSERVATIONS IN SOUTHWEST NEBRASKA AND FAR NORTHEAST COLORADO...

CITY           SKY/WX    TMP DP  RH WIND       PRES   REMARKS
WRAY           PTSUNNY   27  19  74 NW10      30.14S WCI  17
HOLYOKE        FAIR      28  19  69 W10       30.14R WCI  19
IMPERIAL       MOCLDY    23  17  78 NW9       30.13R WCI  13
OGALLALA       MOCLDY    25  17  72 NW16      30.12R WCI  12
NORTH PLATTE   PTCLDY     9   4  80 NW8       30.12R WCI  -3
MCCOOK         PTCLDY    20  12  71 W15       30.13R WCI   6
LEXINGTON      CLEAR     14   8  78 W10       30.11R WCI   1
STAPLETON        N/A     16  11  81 CALM        N/A
GOTHENBURG       N/A     15  10  78 NW6         N/A  WCI   6
CALLAWAY         N/A     16  12  83 NW12        N/A  WCI   3
$$

...OBSERVATIONS IN CENTRAL LINCOLN COUNTY AREA...

CITY           SKY/WX    TMP DP  RH WIND       PRES   REMARKS
N.P. AIRPORT   PTCLDY     9   4  80 NW8       30.12R WCI  -3
N.P. DOWNTOWN    N/A     12   8  85 CALM        N/A
N.P. SOUTHEAST   N/A     14   9  79 CALM        N/A
N.P. HILLCREST   N/A     13   9  84 CALM        N/A
$$

...SOME OBSERVATIONS FROM AROUND THE REGION...

CITY           SKY/WX    TMP DP  RH WIND       PRES   REMARKS
DENVER         PTCLDY    25   8  48 SW5       30.14R WCI  19
BERTHOUD PASS  LGT SNOW   1  -9  60 NW31G44   30.00R VSB 3/4 WCI -24
GRAND JUNCTION CLOUDY    18  15  88 E5        30.33S WCI  11
LARAMIE        CLOUDY    18  12  77 W14       30.10S WCI   4
CHEYENNE       PTCLDY    24  12  60 NW12G18   30.11R WCI  13
CASPER         CLEAR     14   9  80 SW10      30.14R WCI   1
BISMARCK       FOG       15  12  88 CALM      30.03R VSB 1/4
RAPID CITY     CLOUDY    30  24  78 CALM      30.07S
PIERRE         FOG       18  18 100 SW3       30.06S VSB 1/2
SIOUX FALLS    CLOUDY    22  21  96 N10       30.04R WCI  11
OMAHA          CLOUDY    26  21  81 NW18G31   30.08R WCI  13
GRAND ISLAND   CLEAR     16  13  88 NW15      30.08R WCI   1
SCOTTSBLUFF    MOCLDY    23  16  74 W10       30.14R WCI  12
KANSAS CITY    CLOUDY    29  25  85 NW14G21   30.03R WCI  18
HILL CITY      CLEAR     21  14  74 NW10      30.15R WCI  10
WICHITA        CLEAR     25  20  81 NW10      30.14R WCI  15
DODGE CITY     CLEAR     23  12  62 NW14      30.16R WCI  11
OKLAHOMA CITY  CLEAR     29  17  61 NW12      30.18R WCI  19
DALLAS         MOCLDY    39  19  44 NW12      30.19R WCI  32
AMARILLO       CLOUDY    24   4  42 NW3       30.19R
$$




USA.gov is the U.S. government's official web portal to all federal, state and local government web resources and services.